STARLINK-35125, 65534

Orbit data source: Space-Track

STARLINK-35125, 65534 is a payload satellite owned by SpaceX/Seattle (US) in SSO that was launched on Sat, 06 Sep 2025 UTC via an FALCON 9 launch vehicle from the Air Force Eastern Test Range (AFETR). Payload-class satellites include a variety of spacecraft equipped with specific instruments for various scientific and technological missions. These include communications satellites like Starlink; space stations such as the ISS; scientific satellites like the Hubble; Earth observation satellites from companies like Planet Labs, Umbra, and HawkEye 360; GPS; miniature CubeSats for education and research; and military/defense satellites.

Loading next visibility...
Identifier
65534, 2025-200Q
Orbit
SSO
Country
Flag of USUS
Related business
Manufacturer
SpaceX/Seattle
Mission
Operational Commercial Communications
Bus & Motor
STARLINK V2MO, Unknown motor
Mass
575 kg wet, ~530 kg dry
Launch date (UTC)
2025-09-06 (9 months ago)
Launch vehicle
FALCON 9
Launch site
Air Force Eastern Test Range (AFETR)
Object type
Payload
Rocket body
Debris
Shape & HBR
Box + 2 Pan, 17.7 m
Radar Cross Section
36.964 m², Large (>1 m²)

Expand to show TLE details & history
Last TLE update: 1 day ago

TLE from 1 day ago
0 STARLINK-35125
1 65534U 25200Q   26170.75145191  .00002199  00000-0  15629-3 0  9998
2 65534  97.3384 239.2619 0001037  96.0882 264.0463 15.05657067 44482
Epoch: 2026-06-19T18:02Z
TLE epoch observation values (Epoch: 2026-06-19T18:02:05.445Z)
Latitude
-0.00007°
Longitude
60.76329°
Altitude
552.637 km
Speed
7.585 km/s
True Right ascension
15h 57m 02s
True Declination
0° 00' 00"
Sunlit
Object was in full shadow at epoch
Visualization orbit readout
Latitude
Unknown
Longitude
Unknown
Altitude
Unknown
Speed
Unknown
Apparent Right ascension
Unknown
Apparent Declination
Unknown
Sunlit
N/A
Visualization observer readout
Local Sidereal Time
07:13:36
Azimuth
Unknown
Elevation
Unknown
Doppler factor
Unknown
Orbital elements
Apogee altitude
547.19 km
Perigee altitude
545.754 km
Semi-major axis
6,924.609 km
Eccentricity
0.0001
Inclination
97.3384°
RAAN
239.2619°
Arg. of periapsis
96.0882°
True anomaly
264.03448°
Mean anomaly
264.0463°
Eccentric anomaly
264.04039°
Mean motion
3.76661 °/min
Orbital period
95.58 mins
BSTAR
0.00015629
Loading maneuver chart data...
Computing Atmospheric mass density...
Loading historical data...
Loading historical data...
Loading historical data...
Loading historical data...
Loading historical data...
Loading historical data...
Loading historical data...

Documentation

Showing up to 5 results
|